BD-2-G7

Last updated on Thu May 09 2019 03:02:57 GMT+0000 (Coordinated Universal Time)

1 41586U 16037A 19128.56839049 -.00000353 00000-0 00000+0 0 9997 2 41586 0.8422 36.2683 0009063 9.9244 135.0122 1.00266699 10741
UTC large
Height (km)
Speed (km/s)
/
Latitude / Longitude
Inclination (degrees)
Orbital Period (minutes)
Azimuth
Elevation
Range (km)
Doppler Factor

Next 0 passes for location: London (51.5072 / 0.1276)

Sorry there are no passes over London.
BD-2-G7